Weather History for West Palm Beach, FL

Change the Weather History Date:

Tuesday, November 4, 2014

  Actual Average Record
Temperature  
Mean Temperature 76 °F 75 °F  
Max Temperature 79 °F 82 °F 90 °F (1980)
Min Temperature 72 °F 68 °F 46 °F (1966)
Degree Days  
Heating Degree Days 0 0  
Month to date heating degree days 8 0  
Since 1 July heating degree days 8 1  
Cooling Degree Days 11 10  
Month to date cooling degree days 12 40  
Year to date cooling degree days 3948 3661  
Growing Degree Days 26 (Base 50)    
Moisture  
Dew Point 57 °F    
Average Humidity 53    
Maximum Humidity 61    
Minimum Humidity 45    
Precipitation  
Precipitation 0.00 in 0.17 in 4.75 in (1998)
Month to date precipitation 0.00 0.69  
Year to date precipitation 57.59 54.89  
Snow  
Snow 0.00 in - - ()
Month to date snowfall 0.0  
Since 1 July snowfall 0.0  
Since 1 September snowfall 0.0  
Snow Depth 0.00 in    
Sea Level Pressure  
Sea Level Pressure 30.20 in    
Wind  
Wind Speed 16 mph (East)    
Max Wind Speed 24 mph    
Max Gust Speed 31 mph    
Visibility 10 miles    
Events      
T = Trace of Precipitation, MM = Missing Value Source: NWS Daily Summary

Daily Weather History Graph

Daily Weather History Graph

Search for Another Location

Airport:

Trip Planner

Search our weather history database for the weather conditions in past years. The results will help you decide how hot, cold, wet, or windy it might be!

Date:

Astronomy

Nov. 04, 2014 Rise Set
Actual Time 6:31 AM EST 5:35 PM EST
Civil Twilight 6:07 AM EST 5:59 PM EST
Nautical Twilight 5:40 AM EST 6:27 PM EST
Astronomical Twilight 5:13 AM EST 6:54 PM EST
Moon 4:08 PM EST (11/4) 4:03 AM EST (11/4)
Length of Visible Light 11h 51m
Length of Day
11h 03m
Waxing Gibbous, 94% of the Moon is Illuminated
Nov 4
Waxing Gibbous
Nov 6
Full
Nov 14
Last Quarter
Nov 22
New
Nov 29
First Quarter

Hourly Weather History & Observations

Time (EST) Temp. Dew Point Humidity Pressure Visibility Wind Dir Wind Speed Gust Speed Precip Events Conditions
12:53 AM 72.0 °F 55.9 °F 57% 30.23 in 10.0 mi ENE 10.4 mph - N/A   Mostly Cloudy
1:53 AM 73.0 °F 53.1 °F 49% 30.22 in 10.0 mi ENE 15.0 mph - N/A   Scattered Clouds
2:53 AM 73.0 °F 54.0 °F 51% 30.21 in 10.0 mi East 16.1 mph - N/A   Mostly Cloudy
3:53 AM 73.0 °F 55.0 °F 53% 30.20 in 10.0 mi East 16.1 mph - N/A   Mostly Cloudy
4:53 AM 73.0 °F 55.0 °F 53% 30.19 in 10.0 mi ENE 13.8 mph 20.7 mph N/A   Mostly Cloudy
5:53 AM 73.0 °F 54.0 °F 51% 30.21 in 10.0 mi ENE 12.7 mph - N/A   Mostly Cloudy
6:53 AM 73.0 °F 55.9 °F 55% 30.22 in 10.0 mi ENE 13.8 mph - N/A   Mostly Cloudy
7:53 AM 73.9 °F 59.0 °F 59% 30.24 in 10.0 mi East 10.4 mph - N/A   Mostly Cloudy
8:53 AM 75.0 °F 54.0 °F 48% 30.26 in 10.0 mi East 13.8 mph - N/A   Mostly Cloudy
9:53 AM 77.0 °F 55.9 °F 48% 30.26 in 10.0 mi East 16.1 mph - N/A   Overcast
10:53 AM 77.0 °F 57.9 °F 52% 30.25 in 10.0 mi East 17.3 mph - N/A   Mostly Cloudy
11:53 AM 75.9 °F 57.9 °F 54% 30.23 in 10.0 mi East 15.0 mph - N/A   Overcast
12:53 PM 79.0 °F 59.0 °F 50% 30.20 in 10.0 mi East 18.4 mph 28.8 mph N/A   Overcast
1:53 PM 78.1 °F 57.9 °F 50% 30.18 in 10.0 mi East 19.6 mph - N/A   Mostly Cloudy
2:53 PM 78.1 °F 57.0 °F 48% 30.16 in 10.0 mi East 18.4 mph 25.3 mph N/A   Scattered Clouds
3:53 PM 78.1 °F 55.9 °F 46% 30.16 in 10.0 mi ENE 18.4 mph - N/A   Scattered Clouds
4:53 PM 75.9 °F 57.0 °F 52% 30.16 in 10.0 mi East 20.7 mph 26.5 mph N/A   Mostly Cloudy
5:53 PM 75.0 °F 57.9 °F 55% 30.16 in 10.0 mi ENE 13.8 mph - N/A   Mostly Cloudy
6:53 PM 75.0 °F 59.0 °F 57% 30.16 in 10.0 mi ENE 16.1 mph 26.5 mph N/A   Mostly Cloudy
7:53 PM 75.9 °F 59.0 °F 56% 30.18 in 10.0 mi East 15.0 mph - N/A   Mostly Cloudy
8:53 PM 75.0 °F 60.1 °F 60% 30.18 in 10.0 mi East 13.8 mph - N/A   Scattered Clouds
9:53 PM 75.0 °F 61.0 °F 62% 30.18 in 10.0 mi East 19.6 mph 25.3 mph N/A   Scattered Clouds
10:53 PM 75.0 °F 61.0 °F 62% 30.17 in 10.0 mi East 16.1 mph 24.2 mph N/A   Partly Cloudy
11:53 PM 75.0 °F 61.0 °F 62% 30.17 in 10.0 mi East 16.1 mph - N/A   Scattered Clouds